Time,TemperatureF,DewpointF,PressureIn,WindDirection,WindDirectionDegrees,WindSpeedMPH,WindSpeedGustMPH,Humidity,HourlyPrecipIn,Conditions,Clouds,dailyrainin,SolarRadiationWatts/m^2,SoftwareType,DateUTC
2013-07-05 00:01:00,66.1,62.4,29.84,SW,226,0.0,2.0,88,0.00,,,0.00,0,HR-IXP-WINDi_r2_v1.2,2013-07-05 07:01:00,
2013-07-05 00:06:00,66.1,62.4,29.84,SW,226,0.0,2.0,88,0.00,,,0.00,0,HR-IXP-WINDi_r2_v1.2,2013-07-05 07:06:00,
2013-07-05 00:11:00,66.1,62.4,29.84,SW,226,0.0,1.0,88,0.00,,,0.00,0,HR-IXP-WINDi_r2_v1.2,2013-07-05 07:11:00,
2013-07-05 00:17:00,66.1,62.4,29.84,SW,226,0.0,1.0,88,0.00,,,0.00,0,HR-IXP-WINDi_r2_v1.2,2013-07-05 07:17:00,
2013-07-05 00:22:00,66.2,62.5,29.83,SSW,211,1.0,3.0,88,0.00,,,0.00,0,HR-IXP-WINDi_r2_v1.2,2013-07-05 07:22:00,
2013-07-05 00:27:00,66.3,62.6,29.83,SSW,211,0.0,3.0,88,0.00,,,0.00,0,HR-IXP-WINDi_r2_v1.2,2013-07-05 07:27:00,
2013-07-05 00:32:00,66.3,62.6,29.83,SW,215,0.0,3.0,88,0.00,,,0.00,0,HR-IXP-WINDi_r2_v1.2,2013-07-05 07:32:00,
2013-07-05 00:37:00,66.3,62.6,29.83,SW,215,1.0,3.0,88,0.00,,,0.00,0,HR-IXP-WINDi_r2_v1.2,2013-07-05 07:37:00,
2013-07-05 00:42:00,66.3,62.6,29.83,SW,221,0.0,3.0,88,0.00,,,0.00,0,HR-IXP-WINDi_r2_v1.2,2013-07-05 07:42:00,
2013-07-05 00:48:00,66.2,62.5,29.83,SW,221,0.0,2.0,88,0.00,,,0.00,0,HR-IXP-WINDi_r2_v1.2,2013-07-05 07:48:00,
2013-07-05 00:53:00,66.2,62.5,29.83,SSE,161,0.0,2.0,88,0.00,,,0.00,0,HR-IXP-WINDi_r2_v1.2,2013-07-05 07:53:00,
2013-07-05 00:58:00,66.1,62.4,29.83,SSE,161,0.0,2.0,88,0.00,,,0.00,0,HR-IXP-WINDi_r2_v1.2,2013-07-05 07:58:00,
2013-07-05 01:03:00,66.1,62.4,29.83,SSE,161,0.0,1.0,88,0.00,,,0.00,0,HR-IXP-WINDi_r2_v1.2,2013-07-05 08:03:00,
2013-07-05 01:08:00,66.2,62.5,29.83,SSE,161,0.0,1.0,88,0.00,,,0.00,0,HR-IXP-WINDi_r2_v1.2,2013-07-05 08:08:00,
2013-07-05 01:13:00,66.2,62.5,29.82,SSW,202,1.0,3.0,88,0.00,,,0.00,0,HR-IXP-WINDi_r2_v1.2,2013-07-05 08:13:00,
2013-07-05 01:19:00,66.3,62.6,29.82,SW,223,0.0,3.0,88,0.00,,,0.00,0,HR-IXP-WINDi_r2_v1.2,2013-07-05 08:19:00,
2013-07-05 01:24:00,66.3,62.6,29.82,SW,223,0.0,3.0,88,0.00,,,0.00,0,HR-IXP-WINDi_r2_v1.2,2013-07-05 08:24:00,
2013-07-05 01:29:00,66.2,62.5,29.82,SW,223,1.0,3.0,88,0.00,,,0.00,0,HR-IXP-WINDi_r2_v1.2,2013-07-05 08:29:00,
2013-07-05 01:34:00,66.1,62.4,29.82,South,180,0.0,2.0,88,0.00,,,0.00,0,HR-IXP-WINDi_r2_v1.2,2013-07-05 08:34:00,
2013-07-05 01:39:00,66.1,62.4,29.82,South,180,1.0,2.0,88,0.00,,,0.00,0,HR-IXP-WINDi_r2_v1.2,2013-07-05 08:39:00,
2013-07-05 01:44:00,66.2,62.5,29.82,SSW,196,1.0,3.0,88,0.00,,,0.00,0,HR-IXP-WINDi_r2_v1.2,2013-07-05 08:44:00,
2013-07-05 01:50:00,66.2,62.5,29.81,SSW,196,1.0,3.0,88,0.00,,,0.00,0,HR-IXP-WINDi_r2_v1.2,2013-07-05 08:50:00,
2013-07-05 01:55:00,66.1,62.4,29.81,SSW,196,0.0,3.0,88,0.00,,,0.00,0,HR-IXP-WINDi_r2_v1.2,2013-07-05 08:55:00,
2013-07-05 02:00:00,66.1,62.4,29.81,SSW,196,3.0,3.0,88,0.00,,,0.00,0,HR-IXP-WINDi_r2_v1.2,2013-07-05 09:00:00,
2013-07-05 02:05:00,66.1,62.4,29.82,SSW,196,0.0,3.0,88,0.00,,,0.00,0,HR-IXP-WINDi_r2_v1.2,2013-07-05 09:05:00,
2013-07-05 02:10:00,66.0,62.3,29.81,SW,223,1.0,3.0,88,0.00,,,0.00,0,HR-IXP-WINDi_r2_v1.2,2013-07-05 09:10:00,
2013-07-05 02:16:00,65.9,62.2,29.81,SW,223,1.0,3.0,88,0.00,,,0.00,0,HR-IXP-WINDi_r2_v1.2,2013-07-05 09:16:00,
2013-07-05 02:21:00,65.9,62.5,29.81,SW,223,1.0,3.0,89,0.00,,,0.00,0,HR-IXP-WINDi_r2_v1.2,2013-07-05 09:21:00,
2013-07-05 02:26:00,65.9,62.5,29.81,SW,223,0.0,2.0,89,0.00,,,0.00,0,HR-IXP-WINDi_r2_v1.2,2013-07-05 09:26:00,
2013-07-05 02:31:00,66.0,62.6,29.81,SW,223,0.0,2.0,89,0.00,,,0.00,0,HR-IXP-WINDi_r2_v1.2,2013-07-05 09:31:00,
2013-07-05 02:36:00,65.9,62.5,29.81,SW,223,0.0,3.0,89,0.00,,,0.00,0,HR-IXP-WINDi_r2_v1.2,2013-07-05 09:36:00,
2013-07-05 02:41:00,65.9,62.5,29.81,SW,223,1.0,3.0,89,0.00,,,0.00,0,HR-IXP-WINDi_r2_v1.2,2013-07-05 09:41:00,
2013-07-05 02:46:00,65.9,62.5,29.80,SW,223,1.0,2.0,89,0.00,,,0.00,0,HR-IXP-WINDi_r2_v1.2,2013-07-05 09:46:00,
2013-07-05 02:52:00,65.9,62.5,29.80,SW,223,0.0,2.0,89,0.00,,,0.00,0,HR-IXP-WINDi_r2_v1.2,2013-07-05 09:52:00,
2013-07-05 02:57:00,66.0,62.6,29.80,SW,223,2.0,3.0,89,0.00,,,0.00,0,HR-IXP-WINDi_r2_v1.2,2013-07-05 09:57:00,
2013-07-05 03:02:00,65.9,62.5,29.80,SW,223,0.0,3.0,89,0.00,,,0.00,0,HR-IXP-WINDi_r2_v1.2,2013-07-05 10:02:00,
2013-07-05 03:07:00,65.9,62.5,29.80,SW,223,1.0,3.0,89,0.00,,,0.00,0,HR-IXP-WINDi_r2_v1.2,2013-07-05 10:07:00,
2013-07-05 03:13:00,65.8,62.4,29.80,SW,223,0.0,2.0,89,0.00,,,0.00,0,HR-IXP-WINDi_r2_v1.2,2013-07-05 10:13:00,
2013-07-05 03:18:00,65.9,62.5,29.80,SW,223,2.0,2.0,89,0.00,,,0.00,0,HR-IXP-WINDi_r2_v1.2,2013-07-05 10:18:00,
2013-07-05 03:23:00,65.9,62.5,29.80,SW,214,4.0,4.0,89,0.00,,,0.00,0,HR-IXP-WINDi_r2_v1.2,2013-07-05 10:23:00,
2013-07-05 03:28:00,65.9,62.5,29.80,West,269,3.0,5.0,89,0.00,,,0.00,0,HR-IXP-WINDi_r2_v1.2,2013-07-05 10:28:00,
2013-07-05 03:33:00,65.8,62.4,29.80,SW,225,0.0,5.0,89,0.00,,,0.00,0,HR-IXP-WINDi_r2_v1.2,2013-07-05 10:33:00,
2013-07-05 03:39:00,65.8,62.4,29.80,SW,225,1.0,3.0,89,0.00,,,0.00,0,HR-IXP-WINDi_r2_v1.2,2013-07-05 10:39:00,
2013-07-05 03:44:00,65.7,62.3,29.80,SW,225,0.0,3.0,89,0.00,,,0.00,0,HR-IXP-WINDi_r2_v1.2,2013-07-05 10:44:00,
2013-07-05 03:49:00,65.7,62.3,29.79,SW,225,0.0,2.0,89,0.00,,,0.00,0,HR-IXP-WINDi_r2_v1.2,2013-07-05 10:49:00,
2013-07-05 03:54:00,65.7,62.6,29.79,SW,223,0.0,2.0,90,0.00,,,0.00,0,HR-IXP-WINDi_r2_v1.2,2013-07-05 10:54:00,
2013-07-05 03:59:00,65.6,62.5,29.79,SSW,212,0.0,3.0,90,0.00,,,0.00,0,HR-IXP-WINDi_r2_v1.2,2013-07-05 10:59:00,
2013-07-05 04:05:00,65.6,62.5,29.79,SSW,212,1.0,3.0,90,0.00,,,0.00,0,HR-IXP-WINDi_r2_v1.2,2013-07-05 11:05:00,
2013-07-05 04:10:00,65.6,62.5,29.79,SSW,212,0.0,3.0,90,0.00,,,0.00,0,HR-IXP-WINDi_r2_v1.2,2013-07-05 11:10:00,
2013-07-05 04:15:00,65.5,62.4,29.79,SSW,213,0.0,3.0,90,0.00,,,0.00,0,HR-IXP-WINDi_r2_v1.2,2013-07-05 11:15:00,
2013-07-05 04:20:00,65.6,62.5,29.79,SW,214,1.0,3.0,90,0.00,,,0.00,0,HR-IXP-WINDi_r2_v1.2,2013-07-05 11:20:00,
2013-07-05 04:25:00,65.6,62.5,29.79,SW,214,1.0,3.0,90,0.00,,,0.00,0,HR-IXP-WINDi_r2_v1.2,2013-07-05 11:25:00,
2013-07-05 04:31:00,65.6,62.5,29.79,SW,215,1.0,3.0,90,0.00,,,0.00,0,HR-IXP-WINDi_r2_v1.2,2013-07-05 11:31:00,
2013-07-05 04:36:00,65.6,62.5,29.79,SW,215,1.0,3.0,90,0.00,,,0.00,0,HR-IXP-WINDi_r2_v1.2,2013-07-05 11:36:00,
2013-07-05 04:41:00,65.6,62.5,29.80,SW,215,1.0,2.0,90,0.00,,,0.00,0,HR-IXP-WINDi_r2_v1.2,2013-07-05 11:41:00,
2013-07-05 04:46:00,65.6,62.5,29.80,SW,215,2.0,2.0,90,0.00,,,0.00,0,HR-IXP-WINDi_r2_v1.2,2013-07-05 11:46:00,
2013-07-05 04:52:00,65.6,62.5,29.80,SSW,205,0.0,3.0,90,0.00,,,0.00,0,HR-IXP-WINDi_r2_v1.2,2013-07-05 11:52:00,
2013-07-05 04:57:00,65.6,62.5,29.80,SSW,205,0.0,3.0,90,0.00,,,0.00,0,HR-IXP-WINDi_r2_v1.2,2013-07-05 11:57:00,
2013-07-05 05:02:00,65.6,62.5,29.80,SW,215,2.0,4.0,90,0.00,,,0.00,0,HR-IXP-WINDi_r2_v1.2,2013-07-05 12:02:00,
2013-07-05 05:07:00,65.6,62.5,29.80,SW,218,3.0,4.0,90,0.00,,,0.00,0,HR-IXP-WINDi_r2_v1.2,2013-07-05 12:07:00,
2013-07-05 05:12:00,65.5,62.4,29.80,SW,220,2.0,4.0,90,0.00,,,0.00,0,HR-IXP-WINDi_r2_v1.2,2013-07-05 12:12:00,
2013-07-05 05:18:00,65.5,62.4,29.80,SW,220,1.0,3.0,90,0.00,,,0.00,0,HR-IXP-WINDi_r2_v1.2,2013-07-05 12:18:00,
2013-07-05 05:23:00,65.5,62.4,29.80,SW,220,0.0,3.0,90,0.00,,,0.00,0,HR-IXP-WINDi_r2_v1.2,2013-07-05 12:23:00,
2013-07-05 05:28:00,65.5,62.4,29.81,SW,221,1.0,3.0,90,0.00,,,0.00,0,HR-IXP-WINDi_r2_v1.2,2013-07-05 12:28:00,
2013-07-05 05:33:00,65.5,62.4,29.81,SW,221,1.0,3.0,90,0.00,,,0.00,0,HR-IXP-WINDi_r2_v1.2,2013-07-05 12:33:00,
2013-07-05 05:38:00,65.5,62.4,29.81,SW,225,3.0,4.0,90,0.00,,,0.00,0,HR-IXP-WINDi_r2_v1.2,2013-07-05 12:38:00,
2013-07-05 05:43:00,65.4,62.3,29.81,WSW,243,0.0,5.0,90,0.00,,,0.00,0,HR-IXP-WINDi_r2_v1.2,2013-07-05 12:43:00,
2013-07-05 05:48:00,65.4,62.3,29.81,WSW,244,0.0,5.0,90,0.00,,,0.00,0,HR-IXP-WINDi_r2_v1.2,2013-07-05 12:48:00,
2013-07-05 05:54:00,65.5,62.4,29.81,South,189,0.0,3.0,90,0.00,,,0.00,0,HR-IXP-WINDi_r2_v1.2,2013-07-05 12:54:00,
2013-07-05 05:59:00,65.5,62.4,29.81,SSW,211,2.0,3.0,90,0.00,,,0.00,0,HR-IXP-WINDi_r2_v1.2,2013-07-05 12:59:00,
2013-07-05 06:04:00,65.5,62.4,29.81,SSW,211,0.0,3.0,90,0.00,,,0.00,0,HR-IXP-WINDi_r2_v1.2,2013-07-05 13:04:00,
2013-07-05 06:09:00,65.5,62.4,29.81,SSW,211,0.0,2.0,90,0.00,,,0.00,5,HR-IXP-WINDi_r2_v1.2,2013-07-05 13:09:00,
2013-07-05 06:14:00,65.6,62.5,29.82,SSW,211,0.0,2.0,90,0.00,,,0.00,7,HR-IXP-WINDi_r2_v1.2,2013-07-05 13:14:00,
2013-07-05 06:19:00,65.5,62.4,29.82,SSW,211,1.0,2.0,90,0.00,,,0.00,7,HR-IXP-WINDi_r2_v1.2,2013-07-05 13:19:00,
2013-07-05 06:24:00,65.6,62.5,29.82,SSW,211,0.0,2.0,90,0.00,,,0.00,9,HR-IXP-WINDi_r2_v1.2,2013-07-05 13:24:00,
2013-07-05 06:29:00,65.6,62.5,29.82,SSW,211,0.0,1.0,90,0.00,,,0.00,9,HR-IXP-WINDi_r2_v1.2,2013-07-05 13:29:00,
2013-07-05 06:34:00,65.7,62.6,29.82,SW,223,1.0,3.0,90,0.00,,,0.00,11,HR-IXP-WINDi_r2_v1.2,2013-07-05 13:34:00,
2013-07-05 06:39:00,65.7,62.9,29.83,SW,223,2.0,3.0,91,0.00,,,0.00,12,HR-IXP-WINDi_r2_v1.2,2013-07-05 13:39:00,
2013-07-05 06:44:00,65.8,62.7,29.83,SW,223,1.0,5.0,90,0.00,,,0.00,14,HR-IXP-WINDi_r2_v1.2,2013-07-05 13:44:00,
2013-07-05 06:49:00,65.7,62.6,29.83,SSW,200,1.0,5.0,90,0.00,,,0.00,18,HR-IXP-WINDi_r2_v1.2,2013-07-05 13:49:00,
2013-07-05 06:55:00,65.7,62.6,29.83,SSW,194,1.0,4.0,90,0.00,,,0.00,19,HR-IXP-WINDi_r2_v1.2,2013-07-05 13:55:00,
2013-07-05 07:00:00,65.7,62.6,29.83,SSW,194,0.0,3.0,90,0.00,,,0.00,23,HR-IXP-WINDi_r2_v1.2,2013-07-05 14:00:00,
2013-07-05 07:05:00,65.7,62.6,29.83,SSW,197,0.0,2.0,90,0.00,,,0.00,33,HR-IXP-WINDi_r2_v1.2,2013-07-05 14:05:00,
2013-07-05 07:10:00,65.9,62.8,29.83,SSW,196,0.0,2.0,90,0.00,,,0.00,39,HR-IXP-WINDi_r2_v1.2,2013-07-05 14:10:00,
2013-07-05 07:15:00,65.9,62.8,29.83,SSW,197,0.0,2.0,90,0.00,,,0.00,51,HR-IXP-WINDi_r2_v1.2,2013-07-05 14:15:00,
2013-07-05 07:21:00,65.9,62.8,29.84,SSW,197,0.0,2.0,90,0.00,,,0.00,65,HR-IXP-WINDi_r2_v1.2,2013-07-05 14:21:00,
2013-07-05 07:26:00,66.1,63.0,29.84,SSW,204,0.0,3.0,90,0.00,,,0.00,91,HR-IXP-WINDi_r2_v1.2,2013-07-05 14:26:00,
2013-07-05 07:31:00,66.3,63.2,29.84,SSW,204,0.0,3.0,90,0.00,,,0.00,104,HR-IXP-WINDi_r2_v1.2,2013-07-05 14:31:00,
2013-07-05 07:36:00,66.8,63.4,29.84,SSW,204,0.0,2.0,89,0.00,,,0.00,97,HR-IXP-WINDi_r2_v1.2,2013-07-05 14:36:00,
2013-07-05 07:41:00,66.7,63.3,29.84,SSW,204,0.0,2.0,89,0.00,,,0.00,114,HR-IXP-WINDi_r2_v1.2,2013-07-05 14:41:00,
2013-07-05 07:47:00,67.0,63.6,29.84,SSW,204,0.0,1.0,89,0.00,,,0.00,139,HR-IXP-WINDi_r2_v1.2,2013-07-05 14:47:00,
2013-07-05 07:52:00,67.5,63.8,29.85,SSW,204,1.0,1.0,88,0.00,,,0.00,134,HR-IXP-WINDi_r2_v1.2,2013-07-05 14:52:00,
2013-07-05 07:57:00,67.5,63.8,29.85,SSW,204,0.0,2.0,88,0.00,,,0.00,120,HR-IXP-WINDi_r2_v1.2,2013-07-05 14:57:00,
2013-07-05 08:02:00,67.6,63.5,29.84,SW,227,3.0,3.0,87,0.00,,,0.00,134,HR-IXP-WINDi_r2_v1.2,2013-07-05 15:02:00,
2013-07-05 08:07:00,67.7,63.6,29.84,West,261,2.0,3.0,87,0.00,,,0.00,146,HR-IXP-WINDi_r2_v1.2,2013-07-05 15:07:00,
2013-07-05 08:13:00,67.4,63.0,29.85,West,261,1.0,3.0,86,0.00,,,0.00,91,HR-IXP-WINDi_r2_v1.2,2013-07-05 15:13:00,
2013-07-05 08:18:00,67.4,63.3,29.85,West,261,0.0,3.0,87,0.00,,,0.00,125,HR-IXP-WINDi_r2_v1.2,2013-07-05 15:18:00,
2013-07-05 08:23:00,67.5,63.4,29.85,West,261,0.0,2.0,87,0.00,,,0.00,130,HR-IXP-WINDi_r2_v1.2,2013-07-05 15:23:00,
2013-07-05 08:28:00,67.4,63.3,29.85,West,261,0.0,1.0,87,0.00,,,0.00,149,HR-IXP-WINDi_r2_v1.2,2013-07-05 15:28:00,
2013-07-05 08:33:00,68.4,64.6,29.85,West,261,0.0,2.0,88,0.00,,,0.00,237,HR-IXP-WINDi_r2_v1.2,2013-07-05 15:33:00,
2013-07-05 08:39:00,68.4,64.0,29.85,SSW,208,0.0,3.0,86,0.00,,,0.00,174,HR-IXP-WINDi_r2_v1.2,2013-07-05 15:39:00,
2013-07-05 08:44:00,69.3,64.9,29.85,SW,236,2.0,3.0,86,0.00,,,0.00,272,HR-IXP-WINDi_r2_v1.2,2013-07-05 15:44:00,
2013-07-05 08:49:00,68.7,63.6,29.85,WSW,244,0.0,4.0,84,0.00,,,0.00,438,HR-IXP-WINDi_r2_v1.2,2013-07-05 15:49:00,
2013-07-05 08:54:00,70.4,64.9,29.85,NW,321,3.0,4.0,83,0.00,,,0.00,353,HR-IXP-WINDi_r2_v1.2,2013-07-05 15:54:00,
2013-07-05 08:59:00,70.4,64.6,29.85,NNE,22,0.0,4.0,82,0.00,,,0.00,494,HR-IXP-WINDi_r2_v1.2,2013-07-05 15:59:00,
2013-07-05 09:04:00,70.3,64.5,29.84,North,5,0.0,4.0,82,0.00,,,0.00,541,HR-IXP-WINDi_r2_v1.2,2013-07-05 16:04:00,
2013-07-05 09:09:00,72.5,65.9,29.84,ENE,67,0.0,4.0,80,0.00,,,0.00,506,HR-IXP-WINDi_r2_v1.2,2013-07-05 16:09:00,
2013-07-05 09:15:00,72.6,66.0,29.84,NE,40,0.0,4.0,80,0.00,,,0.00,596,HR-IXP-WINDi_r2_v1.2,2013-07-05 16:15:00,
2013-07-05 09:20:00,71.8,64.9,29.84,NW,307,1.0,3.0,79,0.00,,,0.00,563,HR-IXP-WINDi_r2_v1.2,2013-07-05 16:20:00,
2013-07-05 09:25:00,72.4,65.8,29.84,South,178,0.0,4.0,80,0.00,,,0.00,575,HR-IXP-WINDi_r2_v1.2,2013-07-05 16:25:00,
2013-07-05 09:30:00,72.8,64.7,29.84,SSW,207,0.0,5.0,76,0.00,,,0.00,601,HR-IXP-WINDi_r2_v1.2,2013-07-05 16:30:00,
2013-07-05 09:35:00,73.7,65.6,29.84,SSE,160,0.0,5.0,76,0.00,,,0.00,612,HR-IXP-WINDi_r2_v1.2,2013-07-05 16:35:00,
2013-07-05 09:40:00,72.7,65.7,29.84,SSE,160,2.0,5.0,79,0.00,,,0.00,629,HR-IXP-WINDi_r2_v1.2,2013-07-05 16:40:00,
2013-07-05 09:45:00,75.2,67.1,29.84,SE,130,0.0,5.0,76,0.00,,,0.00,650,HR-IXP-WINDi_r2_v1.2,2013-07-05 16:45:00,
2013-07-05 09:51:00,74.3,64.6,29.84,SW,221,4.0,7.0,72,0.00,,,0.00,707,HR-IXP-WINDi_r2_v1.2,2013-07-05 16:51:00,
2013-07-05 09:56:00,74.5,65.2,29.84,SSE,166,0.0,7.0,73,0.00,,,0.00,694,HR-IXP-WINDi_r2_v1.2,2013-07-05 16:56:00,
2013-07-05 10:01:00,75.9,65.8,29.84,SE,129,0.0,6.0,71,0.00,,,0.00,656,HR-IXP-WINDi_r2_v1.2,2013-07-05 17:01:00,
2013-07-05 10:06:00,73.6,64.4,29.84,SW,232,2.0,6.0,73,0.00,,,0.00,650,HR-IXP-WINDi_r2_v1.2,2013-07-05 17:06:00,
2013-07-05 10:12:00,75.8,66.5,29.84,SSE,151,2.0,6.0,73,0.00,,,0.00,659,HR-IXP-WINDi_r2_v1.2,2013-07-05 17:12:00,
2013-07-05 10:17:00,75.5,65.0,29.84,SSE,158,1.0,8.0,70,0.00,,,0.00,677,HR-IXP-WINDi_r2_v1.2,2013-07-05 17:17:00,
2013-07-05 10:22:00,74.5,65.2,29.84,SSW,198,5.0,8.0,73,0.00,,,0.00,693,HR-IXP-WINDi_r2_v1.2,2013-07-05 17:22:00,
2013-07-05 10:27:00,74.0,65.5,29.84,SW,230,3.0,6.0,75,0.00,,,0.00,733,HR-IXP-WINDi_r2_v1.2,2013-07-05 17:27:00,
2013-07-05 10:32:00,74.2,64.9,29.83,South,183,4.0,7.0,73,0.00,,,0.00,696,HR-IXP-WINDi_r2_v1.2,2013-07-05 17:32:00,
2013-07-05 10:38:00,73.8,65.3,29.83,WSW,253,7.0,7.0,75,0.00,,,0.00,236,HR-IXP-WINDi_r2_v1.2,2013-07-05 17:38:00,
2013-07-05 10:43:00,74.2,65.3,29.84,West,261,4.0,10.0,74,0.00,,,0.00,821,HR-IXP-WINDi_r2_v1.2,2013-07-05 17:43:00,
2013-07-05 10:48:00,74.0,65.1,29.84,WSW,246,2.0,10.0,74,0.00,,,0.00,860,HR-IXP-WINDi_r2_v1.2,2013-07-05 17:48:00,
2013-07-05 10:54:00,74.9,66.0,29.84,South,180,1.0,6.0,74,0.00,,,0.00,798,HR-IXP-WINDi_r2_v1.2,2013-07-05 17:54:00,
2013-07-05 10:59:00,76.5,65.1,29.84,SW,214,2.0,6.0,68,0.00,,,0.00,779,HR-IXP-WINDi_r2_v1.2,2013-07-05 17:59:00,
2013-07-05 11:04:00,75.4,65.3,29.83,SW,236,3.0,10.0,71,0.00,,,0.00,782,HR-IXP-WINDi_r2_v1.2,2013-07-05 18:04:00,
2013-07-05 11:09:00,75.8,66.1,29.84,SW,221,4.0,10.0,72,0.00,,,0.00,795,HR-IXP-WINDi_r2_v1.2,2013-07-05 18:09:00,
2013-07-05 11:14:00,75.7,65.6,29.84,SSE,164,4.0,8.0,71,0.00,,,0.00,802,HR-IXP-WINDi_r2_v1.2,2013-07-05 18:14:00,
2013-07-05 11:19:00,75.8,65.3,29.84,SSW,209,4.0,12.0,70,0.00,,,0.00,826,HR-IXP-WINDi_r2_v1.2,2013-07-05 18:19:00,
2013-07-05 11:24:00,75.0,65.7,29.84,WSW,256,8.0,12.0,73,0.00,,,0.00,710,HR-IXP-WINDi_r2_v1.2,2013-07-05 18:24:00,
2013-07-05 11:29:00,74.2,65.3,29.84,SSW,195,5.0,11.0,74,0.00,,,0.00,710,HR-IXP-WINDi_r2_v1.2,2013-07-05 18:29:00,
2013-07-05 11:35:00,74.8,65.9,29.84,South,186,3.0,11.0,74,0.00,,,0.00,840,HR-IXP-WINDi_r2_v1.2,2013-07-05 18:35:00,
2013-07-05 11:40:00,73.9,64.2,29.84,SSW,209,3.0,10.0,72,0.00,,,0.00,830,HR-IXP-WINDi_r2_v1.2,2013-07-05 18:40:00,
2013-07-05 11:45:00,74.1,64.8,29.84,SW,236,5.0,10.0,73,0.00,,,0.00,835,HR-IXP-WINDi_r2_v1.2,2013-07-05 18:45:00,
2013-07-05 11:50:00,73.9,65.0,29.84,WSW,247,2.0,8.0,74,0.00,,,0.00,840,HR-IXP-WINDi_r2_v1.2,2013-07-05 18:50:00,
2013-07-05 11:55:00,74.0,65.1,29.84,SW,227,4.0,8.0,74,0.00,,,0.00,854,HR-IXP-WINDi_r2_v1.2,2013-07-05 18:55:00,
2013-07-05 12:01:00,74.9,65.6,29.84,SSW,201,1.0,7.0,73,0.00,,,0.00,911,HR-IXP-WINDi_r2_v1.2,2013-07-05 19:01:00,
2013-07-05 12:06:00,75.2,65.5,29.85,SW,226,6.0,9.0,72,0.00,,,0.00,1035,HR-IXP-WINDi_r2_v1.2,2013-07-05 19:06:00,
2013-07-05 12:11:00,74.7,64.6,29.84,South,181,5.0,9.0,71,0.00,,,0.00,561,HR-IXP-WINDi_r2_v1.2,2013-07-05 19:11:00,
2013-07-05 12:16:00,74.0,64.3,29.84,SW,220,7.0,13.0,72,0.00,,,0.00,584,HR-IXP-WINDi_r2_v1.2,2013-07-05 19:16:00,
2013-07-05 12:22:00,74.1,65.2,29.85,WSW,248,4.0,14.0,74,0.00,,,0.00,439,HR-IXP-WINDi_r2_v1.2,2013-07-05 19:22:00,
2013-07-05 12:27:00,73.0,64.2,29.85,SSW,208,7.0,14.0,74,0.00,,,0.00,438,HR-IXP-WINDi_r2_v1.2,2013-07-05 19:27:00,
2013-07-05 12:32:00,72.5,64.4,29.84,SW,229,3.0,11.0,76,0.00,,,0.00,417,HR-IXP-WINDi_r2_v1.2,2013-07-05 19:32:00,
2013-07-05 12:37:00,72.9,65.2,29.85,South,186,3.0,10.0,77,0.00,,,0.00,559,HR-IXP-WINDi_r2_v1.2,2013-07-05 19:37:00,
2013-07-05 12:42:00,73.3,64.8,29.85,South,175,2.0,7.0,75,0.00,,,0.00,582,HR-IXP-WINDi_r2_v1.2,2013-07-05 19:42:00,
2013-07-05 12:47:00,73.7,64.4,29.85,SW,230,5.0,7.0,73,0.00,,,0.00,580,HR-IXP-WINDi_r2_v1.2,2013-07-05 19:47:00,
2013-07-05 12:53:00,73.0,64.2,29.84,SSW,200,2.0,8.0,74,0.00,,,0.00,355,HR-IXP-WINDi_r2_v1.2,2013-07-05 19:53:00,
2013-07-05 12:58:00,72.6,64.5,29.84,SW,235,6.0,8.0,76,0.00,,,0.00,329,HR-IXP-WINDi_r2_v1.2,2013-07-05 19:58:00,
2013-07-05 13:03:00,72.2,64.2,29.84,SW,219,4.0,8.0,76,0.00,,,0.00,320,HR-IXP-WINDi_r2_v1.2,2013-07-05 20:03:00,
2013-07-05 13:08:00,72.3,64.3,29.84,SW,226,6.0,12.0,76,0.00,,,0.00,313,HR-IXP-WINDi_r2_v1.2,2013-07-05 20:08:00,
2013-07-05 13:13:00,72.0,64.3,29.85,SSW,212,5.0,12.0,77,0.00,,,0.00,295,HR-IXP-WINDi_r2_v1.2,2013-07-05 20:13:00,
2013-07-05 13:19:00,71.7,64.0,29.85,SW,224,3.0,12.0,77,0.00,,,0.00,269,HR-IXP-WINDi_r2_v1.2,2013-07-05 20:19:00,
2013-07-05 13:24:00,70.8,63.5,29.85,SSW,207,5.0,12.0,78,0.00,,,0.00,276,HR-IXP-WINDi_r2_v1.2,2013-07-05 20:24:00,
2013-07-05 13:29:00,70.1,63.2,29.83,West,280,2.0,12.0,79,0.00,,,0.00,306,HR-IXP-WINDi_r2_v1.2,2013-07-05 20:29:00,
2013-07-05 13:34:00,70.6,64.1,29.83,West,261,5.0,10.0,80,0.00,,,0.00,295,HR-IXP-WINDi_r2_v1.2,2013-07-05 20:34:00,
2013-07-05 13:39:00,70.3,63.8,29.82,WSW,258,1.0,9.0,80,0.00,,,0.00,243,HR-IXP-WINDi_r2_v1.2,2013-07-05 20:39:00,
2013-07-05 13:44:00,70.9,64.4,29.83,SW,233,2.0,6.0,80,0.00,,,0.00,236,HR-IXP-WINDi_r2_v1.2,2013-07-05 20:44:00,
2013-07-05 13:49:00,71.7,64.4,29.84,South,177,6.0,8.0,78,0.00,,,0.00,285,HR-IXP-WINDi_r2_v1.2,2013-07-05 20:49:00,
2013-07-05 13:54:00,71.6,64.3,29.84,SW,227,7.0,10.0,78,0.00,,,0.00,357,HR-IXP-WINDi_r2_v1.2,2013-07-05 20:54:00,
2013-07-05 14:00:00,71.5,64.2,29.83,SW,226,3.0,10.0,78,0.00,,,0.00,406,HR-IXP-WINDi_r2_v1.2,2013-07-05 21:00:00,
2013-07-05 14:05:00,71.5,64.6,29.82,SW,225,0.0,9.0,79,0.00,,,0.00,385,HR-IXP-WINDi_r2_v1.2,2013-07-05 21:05:00,
2013-07-05 14:10:00,71.7,64.8,29.83,SW,227,3.0,7.0,79,0.00,,,0.00,329,HR-IXP-WINDi_r2_v1.2,2013-07-05 21:10:00,
2013-07-05 14:15:00,71.4,64.5,29.83,SW,223,5.0,8.0,79,0.00,,,0.00,311,HR-IXP-WINDi_r2_v1.2,2013-07-05 21:15:00,
2013-07-05 14:20:00,71.3,64.0,29.82,SW,221,9.0,10.0,78,0.00,,,0.00,425,HR-IXP-WINDi_r2_v1.2,2013-07-05 21:20:00,
2013-07-05 14:25:00,72.9,65.6,29.82,SW,232,9.0,11.0,78,0.00,,,0.00,1081,HR-IXP-WINDi_r2_v1.2,2013-07-05 21:25:00,
2013-07-05 14:31:00,73.8,66.1,29.82,WSW,237,11.0,11.0,77,0.00,,,0.00,717,HR-IXP-WINDi_r2_v1.2,2013-07-05 21:31:00,
2013-07-05 14:36:00,73.9,65.4,29.82,SW,217,4.0,11.0,75,0.00,,,0.00,659,HR-IXP-WINDi_r2_v1.2,2013-07-05 21:36:00,
2013-07-05 14:41:00,75.1,66.6,29.82,SW,216,2.0,9.0,75,0.00,,,0.00,853,HR-IXP-WINDi_r2_v1.2,2013-07-05 21:41:00,
2013-07-05 14:46:00,74.6,65.3,29.81,SW,223,3.0,8.0,73,0.00,,,0.00,849,HR-IXP-WINDi_r2_v1.2,2013-07-05 21:46:00,
2013-07-05 14:51:00,74.9,66.0,29.81,SSW,209,7.0,10.0,74,0.00,,,0.00,454,HR-IXP-WINDi_r2_v1.2,2013-07-05 21:51:00,
2013-07-05 14:57:00,74.2,65.3,29.81,SSW,201,4.0,10.0,74,0.00,,,0.00,786,HR-IXP-WINDi_r2_v1.2,2013-07-05 21:57:00,
2013-07-05 15:02:00,74.0,65.5,29.81,SSW,194,2.0,8.0,75,0.00,,,0.00,765,HR-IXP-WINDi_r2_v1.2,2013-07-05 22:02:00,
2013-07-05 15:07:00,76.1,66.8,29.81,SSW,202,4.0,8.0,73,0.00,,,0.00,745,HR-IXP-WINDi_r2_v1.2,2013-07-05 22:07:00,
2013-07-05 15:12:00,75.9,67.0,29.80,SSW,207,2.0,7.0,74,0.00,,,0.00,729,HR-IXP-WINDi_r2_v1.2,2013-07-05 22:12:00,
2013-07-05 15:18:00,75.3,65.6,29.80,South,191,1.0,8.0,72,0.00,,,0.00,719,HR-IXP-WINDi_r2_v1.2,2013-07-05 22:18:00,
2013-07-05 15:23:00,75.7,66.0,29.79,SW,236,4.0,8.0,72,0.00,,,0.00,707,HR-IXP-WINDi_r2_v1.2,2013-07-05 22:23:00,
2013-07-05 15:28:00,77.5,66.9,29.79,South,191,4.0,6.0,70,0.00,,,0.00,698,HR-IXP-WINDi_r2_v1.2,2013-07-05 22:28:00,
2013-07-05 15:33:00,76.8,65.8,29.79,SSW,207,6.0,6.0,69,0.00,,,0.00,686,HR-IXP-WINDi_r2_v1.2,2013-07-05 22:33:00,
2013-07-05 15:38:00,75.9,65.8,29.79,WSW,238,4.0,7.0,71,0.00,,,0.00,664,HR-IXP-WINDi_r2_v1.2,2013-07-05 22:38:00,
2013-07-05 15:44:00,77.1,66.5,29.79,South,187,1.0,7.0,70,0.00,,,0.00,640,HR-IXP-WINDi_r2_v1.2,2013-07-05 22:44:00,
2013-07-05 15:49:00,77.6,66.6,29.79,South,183,3.0,9.0,69,0.00,,,0.00,615,HR-IXP-WINDi_r2_v1.2,2013-07-05 22:49:00,
2013-07-05 15:54:00,76.7,66.1,29.79,SSE,166,4.0,9.0,70,0.00,,,0.00,606,HR-IXP-WINDi_r2_v1.2,2013-07-05 22:54:00,
2013-07-05 16:00:00,76.8,66.6,29.79,SW,216,5.0,8.0,71,0.00,,,0.00,613,HR-IXP-WINDi_r2_v1.2,2013-07-05 23:00:00,
2013-07-05 16:05:00,76.0,65.9,29.78,WSW,257,4.0,8.0,71,0.00,,,0.00,613,HR-IXP-WINDi_r2_v1.2,2013-07-05 23:05:00,
2013-07-05 16:10:00,75.9,66.2,29.79,SW,232,2.0,8.0,72,0.00,,,0.00,603,HR-IXP-WINDi_r2_v1.2,2013-07-05 23:10:00,
2013-07-05 16:15:00,75.2,65.5,29.79,SSW,198,6.0,9.0,72,0.00,,,0.00,587,HR-IXP-WINDi_r2_v1.2,2013-07-05 23:15:00,
2013-07-05 16:20:00,74.9,65.6,29.78,SSW,210,5.0,9.0,73,0.00,,,0.00,571,HR-IXP-WINDi_r2_v1.2,2013-07-05 23:20:00,
2013-07-05 16:25:00,74.7,65.8,29.78,SSW,209,3.0,9.0,74,0.00,,,0.00,561,HR-IXP-WINDi_r2_v1.2,2013-07-05 23:25:00,
2013-07-05 16:31:00,74.7,65.4,29.78,South,177,4.0,10.0,73,0.00,,,0.00,548,HR-IXP-WINDi_r2_v1.2,2013-07-05 23:31:00,
2013-07-05 16:36:00,74.6,65.7,29.78,South,173,3.0,12.0,74,0.00,,,0.00,534,HR-IXP-WINDi_r2_v1.2,2013-07-05 23:36:00,
2013-07-05 16:41:00,74.5,66.0,29.78,South,188,8.0,12.0,75,0.00,,,0.00,520,HR-IXP-WINDi_r2_v1.2,2013-07-05 23:41:00,
2013-07-05 16:46:00,74.1,65.2,29.78,SSW,198,8.0,12.0,74,0.00,,,0.00,503,HR-IXP-WINDi_r2_v1.2,2013-07-05 23:46:00,
2013-07-05 16:52:00,73.5,65.0,29.78,South,188,5.0,12.0,75,0.00,,,0.00,489,HR-IXP-WINDi_r2_v1.2,2013-07-05 23:52:00,
2013-07-05 16:57:00,73.3,65.2,29.78,SSW,210,8.0,10.0,76,0.00,,,0.00,475,HR-IXP-WINDi_r2_v1.2,2013-07-05 23:57:00,
2013-07-05 17:02:00,73.8,65.7,29.78,SSW,197,4.0,11.0,76,0.00,,,0.00,462,HR-IXP-WINDi_r2_v1.2,2013-07-06 00:02:00,
2013-07-05 17:08:00,73.3,65.2,29.78,SW,232,6.0,13.0,76,0.00,,,0.00,445,HR-IXP-WINDi_r2_v1.2,2013-07-06 00:08:00,
2013-07-05 17:13:00,73.5,65.4,29.78,SW,224,5.0,13.0,76,0.00,,,0.00,434,HR-IXP-WINDi_r2_v1.2,2013-07-06 00:13:00,
2013-07-05 17:18:00,73.9,66.2,29.78,SW,233,2.0,10.0,77,0.00,,,0.00,418,HR-IXP-WINDi_r2_v1.2,2013-07-06 00:18:00,
2013-07-05 17:23:00,73.5,65.4,29.78,South,180,3.0,11.0,76,0.00,,,0.00,406,HR-IXP-WINDi_r2_v1.2,2013-07-06 00:23:00,
2013-07-05 17:28:00,73.0,64.9,29.78,WSW,237,8.0,11.0,76,0.00,,,0.00,325,HR-IXP-WINDi_r2_v1.2,2013-07-06 00:28:00,
2013-07-05 17:34:00,73.4,65.7,29.77,SSW,212,1.0,10.0,77,0.00,,,0.00,374,HR-IXP-WINDi_r2_v1.2,2013-07-06 00:34:00,
2013-07-05 17:39:00,72.9,65.2,29.77,SW,217,4.0,10.0,77,0.00,,,0.00,357,HR-IXP-WINDi_r2_v1.2,2013-07-06 00:39:00,
2013-07-05 17:44:00,72.2,64.9,29.77,SW,236,4.0,13.0,78,0.00,,,0.00,274,HR-IXP-WINDi_r2_v1.2,2013-07-06 00:44:00,
2013-07-05 17:49:00,72.4,65.5,29.77,SW,231,4.0,13.0,79,0.00,,,0.00,329,HR-IXP-WINDi_r2_v1.2,2013-07-06 00:49:00,
2013-07-05 17:54:00,72.4,65.1,29.77,SSW,192,7.0,11.0,78,0.00,,,0.00,315,HR-IXP-WINDi_r2_v1.2,2013-07-06 00:54:00,
2013-07-05 17:59:00,72.1,64.8,29.77,SSW,207,7.0,12.0,78,0.00,,,0.00,299,HR-IXP-WINDi_r2_v1.2,2013-07-06 00:59:00,
2013-07-05 18:04:00,71.6,64.7,29.77,SW,226,7.0,13.0,79,0.00,,,0.00,285,HR-IXP-WINDi_r2_v1.2,2013-07-06 01:04:00,
2013-07-05 18:09:00,71.5,64.9,29.78,SSW,194,4.0,13.0,80,0.00,,,0.00,269,HR-IXP-WINDi_r2_v1.2,2013-07-06 01:09:00,
2013-07-05 18:14:00,71.5,64.9,29.78,WSW,244,6.0,10.0,80,0.00,,,0.00,253,HR-IXP-WINDi_r2_v1.2,2013-07-06 01:14:00,
2013-07-05 18:20:00,71.2,64.7,29.78,SW,232,3.0,10.0,80,0.00,,,0.00,239,HR-IXP-WINDi_r2_v1.2,2013-07-06 01:20:00,
2013-07-05 18:25:00,71.0,64.8,29.78,SSW,207,4.0,10.0,81,0.00,,,0.00,223,HR-IXP-WINDi_r2_v1.2,2013-07-06 01:25:00,
2013-07-05 18:30:00,71.1,64.9,29.78,South,175,8.0,9.0,81,0.00,,,0.00,178,HR-IXP-WINDi_r2_v1.2,2013-07-06 01:30:00,
2013-07-05 18:35:00,70.8,64.6,29.78,WSW,250,7.0,11.0,81,0.00,,,0.00,193,HR-IXP-WINDi_r2_v1.2,2013-07-06 01:35:00,
2013-07-05 18:40:00,70.7,64.5,29.78,South,190,3.0,11.0,81,0.00,,,0.00,179,HR-IXP-WINDi_r2_v1.2,2013-07-06 01:40:00,
2013-07-05 18:46:00,71.0,64.8,29.78,SW,229,5.0,8.0,81,0.00,,,0.00,165,HR-IXP-WINDi_r2_v1.2,2013-07-06 01:46:00,
2013-07-05 18:51:00,70.6,64.8,29.78,SW,215,7.0,10.0,82,0.00,,,0.00,149,HR-IXP-WINDi_r2_v1.2,2013-07-06 01:51:00,
2013-07-05 18:56:00,70.2,64.4,29.78,WSW,248,5.0,10.0,82,0.00,,,0.00,135,HR-IXP-WINDi_r2_v1.2,2013-07-06 01:56:00,
2013-07-05 19:01:00,70.1,64.6,29.79,SW,227,6.0,11.0,83,0.00,,,0.00,121,HR-IXP-WINDi_r2_v1.2,2013-07-06 02:01:00,
2013-07-05 19:06:00,70.1,64.6,29.78,SSW,192,3.0,11.0,83,0.00,,,0.00,100,HR-IXP-WINDi_r2_v1.2,2013-07-06 02:06:00,
2013-07-05 19:11:00,69.5,64.0,29.79,SW,229,4.0,9.0,83,0.00,,,0.00,90,HR-IXP-WINDi_r2_v1.2,2013-07-06 02:11:00,
2013-07-05 19:17:00,69.7,64.6,29.79,SSW,201,4.0,8.0,84,0.00,,,0.00,77,HR-IXP-WINDi_r2_v1.2,2013-07-06 02:17:00,
2013-07-05 19:22:00,69.2,63.8,29.79,SW,223,8.0,9.0,83,0.00,,,0.00,65,HR-IXP-WINDi_r2_v1.2,2013-07-06 02:22:00,
2013-07-05 19:27:00,68.9,63.8,29.79,South,176,3.0,9.0,84,0.00,,,0.00,54,HR-IXP-WINDi_r2_v1.2,2013-07-06 02:27:00,
2013-07-05 19:32:00,68.7,63.6,29.79,South,182,4.0,9.0,84,0.00,,,0.00,42,HR-IXP-WINDi_r2_v1.2,2013-07-06 02:32:00,
2013-07-05 19:38:00,68.4,63.6,29.79,SSW,195,4.0,10.0,85,0.00,,,0.00,33,HR-IXP-WINDi_r2_v1.2,2013-07-06 02:38:00,
2013-07-05 19:43:00,68.1,63.4,29.79,SW,223,6.0,10.0,85,0.00,,,0.00,25,HR-IXP-WINDi_r2_v1.2,2013-07-06 02:43:00,
2013-07-05 19:48:00,67.9,63.5,29.79,SSW,194,3.0,10.0,86,0.00,,,0.00,18,HR-IXP-WINDi_r2_v1.2,2013-07-06 02:48:00,
2013-07-05 19:54:00,67.7,63.3,29.80,South,190,4.0,8.0,86,0.00,,,0.00,11,HR-IXP-WINDi_r2_v1.2,2013-07-06 02:54:00,
2013-07-05 19:59:00,67.4,63.0,29.80,SSW,198,5.0,8.0,86,0.00,,,0.00,7,HR-IXP-WINDi_r2_v1.2,2013-07-06 02:59:00,
2013-07-05 20:04:00,67.3,63.2,29.80,South,182,5.0,8.0,87,0.00,,,0.00,5,HR-IXP-WINDi_r2_v1.2,2013-07-06 03:04:00,
2013-07-05 20:09:00,67.2,63.1,29.80,SW,236,2.0,11.0,87,0.00,,,0.00,0,HR-IXP-WINDi_r2_v1.2,2013-07-06 03:09:00,
2013-07-05 20:15:00,67.0,63.3,29.80,SSW,211,3.0,11.0,88,0.00,,,0.00,0,HR-IXP-WINDi_r2_v1.2,2013-07-06 03:15:00,
2013-07-05 20:20:00,67.0,63.3,29.80,SSW,205,2.0,9.0,88,0.00,,,0.00,0,HR-IXP-WINDi_r2_v1.2,2013-07-06 03:20:00,
2013-07-05 20:25:00,66.9,63.2,29.80,SSW,200,2.0,11.0,88,0.00,,,0.00,0,HR-IXP-WINDi_r2_v1.2,2013-07-06 03:25:00,
2013-07-05 20:30:00,66.7,63.0,29.81,South,181,2.0,11.0,88,0.00,,,0.00,0,HR-IXP-WINDi_r2_v1.2,2013-07-06 03:30:00,
2013-07-05 20:35:00,66.7,63.3,29.81,South,169,1.0,6.0,89,0.00,,,0.00,0,HR-IXP-WINDi_r2_v1.2,2013-07-06 03:35:00,
2013-07-05 20:41:00,66.7,63.3,29.81,SSW,200,0.0,5.0,89,0.00,,,0.00,0,HR-IXP-WINDi_r2_v1.2,2013-07-06 03:41:00,
2013-07-05 20:46:00,66.7,63.3,29.81,SW,215,3.0,5.0,89,0.00,,,0.00,0,HR-IXP-WINDi_r2_v1.2,2013-07-06 03:46:00,
2013-07-05 20:51:00,66.7,63.3,29.81,SSW,202,1.0,6.0,89,0.00,,,0.00,0,HR-IXP-WINDi_r2_v1.2,2013-07-06 03:51:00,
2013-07-05 20:56:00,66.6,63.2,29.81,SW,217,1.0,6.0,89,0.00,,,0.00,0,HR-IXP-WINDi_r2_v1.2,2013-07-06 03:56:00,
2013-07-05 21:01:00,66.5,63.1,29.82,SSW,213,2.0,6.0,89,0.00,,,0.00,0,HR-IXP-WINDi_r2_v1.2,2013-07-06 04:01:00,
2013-07-05 21:06:00,66.4,63.0,29.82,WSW,245,3.0,7.0,89,0.00,,,0.00,0,HR-IXP-WINDi_r2_v1.2,2013-07-06 04:06:00,
2013-07-05 21:11:00,66.3,62.9,29.82,SSW,194,2.0,9.0,89,0.00,,,0.00,0,HR-IXP-WINDi_r2_v1.2,2013-07-06 04:11:00,
2013-07-05 21:16:00,66.3,62.9,29.82,SSW,202,0.0,9.0,89,0.00,,,0.00,0,HR-IXP-WINDi_r2_v1.2,2013-07-06 04:16:00,
2013-07-05 21:21:00,66.4,63.0,29.82,SSW,206,4.0,7.0,89,0.00,,,0.00,0,HR-IXP-WINDi_r2_v1.2,2013-07-06 04:21:00,
2013-07-05 21:26:00,66.3,62.9,29.82,SSW,211,3.0,7.0,89,0.00,,,0.00,0,HR-IXP-WINDi_r2_v1.2,2013-07-06 04:26:00,
2013-07-05 21:31:00,66.4,63.0,29.82,SSW,192,2.0,7.0,89,0.00,,,0.00,0,HR-IXP-WINDi_r2_v1.2,2013-07-06 04:31:00,
2013-07-05 21:36:00,66.4,63.0,29.83,SW,221,2.0,7.0,89,0.00,,,0.00,0,HR-IXP-WINDi_r2_v1.2,2013-07-06 04:36:00,
2013-07-05 21:42:00,66.3,62.9,29.83,SW,234,5.0,6.0,89,0.00,,,0.00,0,HR-IXP-WINDi_r2_v1.2,2013-07-06 04:42:00,
2013-07-05 21:47:00,66.3,62.9,29.83,SSW,213,4.0,7.0,89,0.00,,,0.00,0,HR-IXP-WINDi_r2_v1.2,2013-07-06 04:47:00,
2013-07-05 21:52:00,66.3,63.2,29.83,SW,227,1.0,7.0,90,0.00,,,0.00,0,HR-IXP-WINDi_r2_v1.2,2013-07-06 04:52:00,
2013-07-05 21:57:00,66.4,63.0,29.83,SSW,211,4.0,6.0,89,0.00,,,0.00,0,HR-IXP-WINDi_r2_v1.2,2013-07-06 04:57:00,
2013-07-05 22:03:00,66.4,63.0,29.83,SW,225,2.0,6.0,89,0.00,,,0.00,0,HR-IXP-WINDi_r2_v1.2,2013-07-06 05:03:00,
2013-07-05 22:08:00,66.3,62.9,29.84,SW,221,0.0,6.0,89,0.00,,,0.00,0,HR-IXP-WINDi_r2_v1.2,2013-07-06 05:08:00,
2013-07-05 22:13:00,66.3,63.2,29.84,SSW,212,2.0,6.0,90,0.00,,,0.00,0,HR-IXP-WINDi_r2_v1.2,2013-07-06 05:13:00,
2013-07-05 22:18:00,66.2,62.8,29.83,WSW,246,1.0,6.0,89,0.00,,,0.00,0,HR-IXP-WINDi_r2_v1.2,2013-07-06 05:18:00,
2013-07-05 22:23:00,66.2,63.1,29.84,SW,234,2.0,7.0,90,0.00,,,0.00,0,HR-IXP-WINDi_r2_v1.2,2013-07-06 05:23:00,
2013-07-05 22:29:00,66.3,63.2,29.84,SW,228,4.0,7.0,90,0.00,,,0.00,0,HR-IXP-WINDi_r2_v1.2,2013-07-06 05:29:00,
2013-07-05 22:34:00,66.2,63.1,29.83,SW,217,2.0,7.0,90,0.00,,,0.00,0,HR-IXP-WINDi_r2_v1.2,2013-07-06 05:34:00,
2013-07-05 22:39:00,66.3,63.2,29.83,SW,217,3.0,6.0,90,0.00,,,0.00,0,HR-IXP-WINDi_r2_v1.2,2013-07-06 05:39:00,
2013-07-05 22:44:00,66.2,62.8,29.84,SW,234,4.0,6.0,89,0.00,,,0.00,0,HR-IXP-WINDi_r2_v1.2,2013-07-06 05:44:00,
2013-07-05 22:50:00,66.2,62.8,29.84,WSW,254,2.0,6.0,89,0.00,,,0.00,0,HR-IXP-WINDi_r2_v1.2,2013-07-06 05:50:00,
2013-07-05 22:55:00,66.3,62.9,29.84,SSW,209,1.0,5.0,89,0.00,,,0.00,0,HR-IXP-WINDi_r2_v1.2,2013-07-06 05:55:00,
2013-07-05 23:00:00,66.4,63.0,29.83,WSW,248,2.0,5.0,89,0.00,,,0.00,0,HR-IXP-WINDi_r2_v1.2,2013-07-06 06:00:00,
2013-07-05 23:05:00,66.3,62.9,29.83,SW,218,2.0,5.0,89,0.00,,,0.00,0,HR-IXP-WINDi_r2_v1.2,2013-07-06 06:05:00,
2013-07-05 23:10:00,66.4,63.0,29.83,SW,229,1.0,5.0,89,0.00,,,0.00,0,HR-IXP-WINDi_r2_v1.2,2013-07-06 06:10:00,
2013-07-05 23:16:00,66.3,62.9,29.83,SW,219,2.0,5.0,89,0.00,,,0.00,0,HR-IXP-WINDi_r2_v1.2,2013-07-06 06:16:00,
2013-07-05 23:21:00,66.4,63.0,29.83,SW,221,2.0,6.0,89,0.00,,,0.00,0,HR-IXP-WINDi_r2_v1.2,2013-07-06 06:21:00,
2013-07-05 23:26:00,66.4,63.0,29.83,SW,218,4.0,6.0,89,0.00,,,0.00,0,HR-IXP-WINDi_r2_v1.2,2013-07-06 06:26:00,
2013-07-05 23:31:00,66.4,63.0,29.83,SW,227,1.0,5.0,89,0.00,,,0.00,0,HR-IXP-WINDi_r2_v1.2,2013-07-06 06:31:00,
2013-07-05 23:36:00,66.5,63.1,29.83,West,264,4.0,4.0,89,0.00,,,0.00,0,HR-IXP-WINDi_r2_v1.2,2013-07-06 06:36:00,
2013-07-05 23:41:00,66.5,63.1,29.83,West,264,0.0,4.0,89,0.00,,,0.00,0,HR-IXP-WINDi_r2_v1.2,2013-07-06 06:41:00,
2013-07-05 23:46:00,66.5,63.1,29.83,SW,219,0.0,5.0,89,0.00,,,0.00,0,HR-IXP-WINDi_r2_v1.2,2013-07-06 06:46:00,
2013-07-05 23:52:00,66.5,63.1,29.83,SW,223,2.0,5.0,89,0.00,,,0.00,0,HR-IXP-WINDi_r2_v1.2,2013-07-06 06:52:00,
2013-07-05 23:57:00,66.5,63.1,29.83,SW,223,2.0,3.0,89,0.00,,,0.00,0,HR-IXP-WINDi_r2_v1.2,2013-07-06 06:57:00,